Погода в Прибое

Россия / Самарская область     52°52′08″N   49°39′12″E
темп.,
°C
ветер,
м/с
пор.,
м/с
влажн.,
%
обл.,
%
осадки,
мм/ч
давл.,
гПа
погр.,
м
22 апреля, чт
чт2201:00+4ю81495100 1.9 1023589
04:00+5ю71392100 4.3 1024489
07:00+5ююв61182100 0.3 1025368
10:00+8ююв6964100 0.3 1026514
13:00+11ююв675716 0.0 1025780
16:00+11ююв7854100 0.0 1025942
19:00+8ююв5868100 0.0 1026581
22:00+6ююв510885 0.0 1026358
23 апреля, пт
пт2301:00+5ююв59925 0.0 1026284
04:00+4юв35965 0.0 1026101
07:00+5вюв239222 0.0 1026136
10:00+9в4473100 0.0 1025517
13:00+13в4557100 0.0 10241013
16:00+14в5649100 0.0 10221453
19:00+11юв4759100 0.0 1021275
22:00+9ююв4879100 0.0 1021313
24 апреля, сб
сб2401:00+8юв3790100 1.3 1019478
04:00+7всв2491100 1.9 1017367
07:00+7всв2389100 0.3 1016241
10:00+8сз1183100 0.3 1015344
13:00+9зсз2378100 0.1 1014544
16:00+11зсз236575 0.3 10131084
19:00+11ююз117075 0.1 101230
22:00+9ююв498096 0.1 1012223
25 апреля, вс
вс2501:00+8ююв6118758 0.2 1010246
04:00+8зюз8128431 1.0 1010928
07:00+6з71074100 0.0 10131038
10:00+9зюз8116128 0.1 10131469
13:00+12зюз784892 0.2 10142059
16:00+12зюз564692 0.4 10151941
19:00+10юз59595 0.1 1016635
22:00+7юз41170100 0.1 1017305
26 апреля, пн
пн2601:00+6зюз4876100 0.0 1018210
04:00+5зюз3473100 0.0 101873
07:00+6юз2366100 0.0 1018112
10:00+10юз2240100 0.0 10171048
13:00+12ююз2234100 0.0 10161893
16:00+13ю2331100 0.0 10142358
19:00+11ю354516 0.0 1013175
22:00+8ю410576 0.0 1013190